Location: Ostrava
(49.8330°N, 18.2830°E)
Time: 08:21:41
(UTC+02:00)

ATV-4 - Visible Passes

Search period start: 17 September 2024 00:00
Search period end: 27 September 2024 00:00
Orbit: 308 x 318 km, 51.6° (Epoch: 02 November)

Date Brightness Start Highest point End Pass type
(mag) Time Alt. Az. Time Alt. Az. Time Alt. Az.
17 Sep 6.4 03:05:02 10° WNW 04:25:49 61° WSW 04:47:37 10° SSE visible
17 Sep 7.6 18:35:49 10° S 19:54:03 67° ESE 21:06:37 10° ENE visible
17 Sep 7.0 23:16:04 10° W 01:03:27 88° N 01:39:47 10° ESE visible
18 Sep 6.3 04:38:13 10° NW 05:40:15 44° WSW 05:59:30 10° S visible
18 Sep 7.4 19:51:39 10° SSW 21:20:20 80° SE 22:25:48 10° ENE visible
19 Sep 6.7 00:47:06 10° W 02:28:23 86° SSW 02:55:39 10° SE visible
19 Sep 6.3 06:11:17 10° NW 06:52:51 27° W 07:09:50 10° SW visible
19 Sep 7.2 21:11:43 10° SW 22:51:44 89° SSE 23:44:41 10° E visible
20 Sep 6.3 02:22:54 10° WNW 03:49:31 73° SW 04:11:08 10° SE visible
20 Sep 7.6 18:03:38 10° S 19:21:43 57° ESE 20:29:37 10° NE visible
20 Sep 7.1 22:37:03 10° WSW 00:24:03 87° N 01:03:22 10° E visible
21 Sep 6.2 04:00:00 10° WNW 05:07:48 55° WSW 05:26:05 10° S visible
21 Sep 7.5 19:19:33 10° SSW 20:46:58 72° SE 21:50:58 10° ENE visible
22 Sep 6.8 00:08:57 10° W 01:53:05 89° NNE 02:21:48 10° ESE visible
22 Sep 6.2 05:35:51 10° NW 06:23:55 37° W 06:40:06 10° SSW visible
22 Sep 7.3 20:40:02 10° SW 22:17:50 84° SE 23:12:02 10° ENE visible
23 Sep 6.3 01:47:19 10° WNW 03:18:08 82° SW 03:39:56 10° SE visible
23 Sep 7.6 17:39:16 10° SSE 18:56:50 49° ESE 19:58:56 10° NE visible
23 Sep 7.1 22:05:49 10° SW 23:51:35 89° NNW 00:32:57 10° E visible
24 Sep 6.0 03:28:24 10° WNW 04:40:02 66° SW 04:57:40 10° SSE visible
24 Sep 7.4 18:54:50 10° S 20:21:46 64° ESE 21:22:32 10° ENE visible
24 Sep 6.9 23:38:28 10° WSW 01:23:44 87° N 01:53:44 10° E visible
25 Sep 6.0 05:07:45 10° NW 05:59:32 46° WSW 06:14:46 10° S visible
25 Sep 7.3 20:15:45 10° SSW 21:52:16 78° SE 22:45:40 10° ENE visible
26 Sep 6.4 01:18:47 10° W 02:52:15 88° SSW 03:14:21 10° ESE visible
26 Sep 7.6 17:22:47 10° SSE 18:38:32 41° E 19:34:27 10° NE visible
